Location: Snead
(33.5657°N, 82.1207°W)
Time: 02:21:46
(UTC+00:00)

Hubble Space Telescope - Visible Passes

Search period start: 18 July 2024 00:00
Search period end: 28 July 2024 00:00
Orbit: 510 x 513 km, 28.5° (Epoch: 17 July)

Date Brightness Start Highest point End Pass type
(mag) Time Alt. Az. Time Alt. Az. Time Alt. Az.
18 Jul 2.0 02:31:09 10° WSW 02:33:53 26° SSW 02:33:53 26° SSW visible
19 Jul 1.9 02:11:46 10° WSW 02:15:07 26° SSW 02:15:22 26° S visible
20 Jul 2.1 01:52:22 10° WSW 01:55:38 24° SSW 01:56:50 21° SSE visible
21 Jul 2.2 01:32:59 10° WSW 01:36:08 22° SSW 01:38:17 15° SSE visible
22 Jul 2.4 01:13:36 10° WSW 01:16:36 21° SSW 01:19:36 10° SSE visible
